Voltar ao catálogo

COSMOS 2251 DEB

AtivoLEO
NORAD 34909·DEBRIS·🇷🇺 Russia

Lançado Jun 16, 1993 de Plesetsk Cosmodrome

Loading…

Próximas Passagens (próximas 24 horas)

TLE

AtualizadoSource: Space-Track

Época: Sep 13, 2026, 17:02 UTC

1 34909U 93036ADE 26256.70977965  .00002378  00000-0  30537-3 0  9998
2 34909  74.0110 255.2014 0083353 319.0652  40.4283 14.79403220709163

Acompanhe COSMOS 2251 DEB em tempo real com AllMySat

Download on the App Store